Location: Wapato
(46.4478°N, 120.4212°W)
Time: 13:42:50
(UTC+00:00)

Explorer 7 - Pass Details

Date: 16 May 2026
Orbit: 426 x 534 km, 50.2° (Epoch: 8 June)

Event Time Altitude Azimuth Distance (km) Brightness Sun altitude
Rises 15:26:55 0° 280° (W) 2,490 9.6 29.0°
Reaches altitude 10° 15:29:06 10° 287° (WNW) 1,634 8.8 29.3°
Maximum altitude 15:32:40 45° 1° (N) 669 7.6 30.0°
Drops below altitude 10° 15:36:23 10° 76° (ENE) 1,700 10.7 30.6°
Sets 15:38:41 0° 82° (E) 2,603 11.4 31.0°
